Location: D?uga
(50.2667°N, 19.7833°E)
Time: 23:17:04
(UTC+00:00)

ALOS - Pass Details

Date: 23 May 2024
Orbit: 672 x 676 km, 98.0° (Epoch: 22 June)

Event Time Altitude Azimuth Distance (km) Brightness Sun altitude
Rises 01:20:27 0° 16° (NNE) 3,041 7.0 -10.5°
Reaches altitude 10° 01:22:44 10° 20° (NNE) 2,121 6.1 -10.3°
Maximum altitude 01:27:20 62° 101° (E) 762 2.7 -9.8°
Drops below altitude 10° 01:31:53 10° 183° (S) 2,102 4.3 -9.3°
Enters shadow 01:32:43 - 184° (S) 2,438 4.6 -9.3°
